"America/Chicago Time","Lifetime Energy (kWh)","Power (W)","AC Volts RMS (V) ","AC Amps RMS (mA)","Grid Frequency (Hz)","Inverter Temperature (C)"
"09/02/12 10:26:01","169.941","122.9","217.54","569","60.03","33"
"09/02/12 10:31:00","169.9506","124.1","217.83","577","60.0","33"
"09/02/12 10:36:00","169.9603","126.4","217.77","588","60.03","34"
"09/02/12 10:41:00","169.9702","127.0","217.32","590","60.03","34"
"09/02/12 10:46:00","169.9802","129.4","217.3","601","60.03","35"
"09/02/12 10:51:01","169.9904","130.5","217.4","607","60.03","35"
"09/02/12 10:56:00","170.0006","132.9","217.74","611","60.03","35"
"09/02/12 11:01:00","170.011","133.9","217.2","620","60.03","36"
"09/02/12 11:06:00","170.0215","135.7","217.22","630","60.03","36"
"09/02/12 11:11:00","170.032","136.9","217.8","628","60.0","37"
"09/02/12 11:16:01","170.0427","136.3","218.22","624","60.03","37"
"09/02/12 11:21:01","170.0532","130.8","217.41","606","60.03","37"
"09/02/12 11:25:59","170.0635","134.6","218.09","624","60.03","37"
"09/02/12 11:31:00","170.0741","140.4","217.19","645","60.03","37"
"09/02/12 11:36:00","170.085","136.8","217.73","633","60.03","37"
"09/02/12 11:41:01","170.0959","142.0","218.06","649","60.03","37"
"09/02/12 11:46:01","170.1067","136.6","218.23","628","60.03","37"
"09/02/12 11:51:01","170.117","133.5","217.29","614","60.0","37"
"09/02/12 11:55:59","170.1268","126.1","217.81","588","60.03","37"
"09/02/12 12:00:59","170.1369","124.7","217.41","580","60.03","37"
"09/02/12 12:06:01","170.1461","114.0","216.92","534","60.0","37"
"09/02/12 12:11:00","170.1551","121.8","217.45","567","60.03","36"
"09/02/12 12:16:00","170.1651","143.2","217.43","657","60.0","37"
"09/02/12 12:21:00","170.1755","132.4","217.04","618","60.03","37"
"09/02/12 12:25:59","170.1861","134.8","217.86","623","60.0","37"
"09/02/12 12:31:01","170.1971","135.8","217.71","629","60.03","38"
"09/02/12 12:36:00","170.208","136.7","218.05","631","60.03","38"
"09/02/12 12:41:00","170.2166","81.1","216.0","395","60.0","37"
"09/02/12 12:46:00","170.2244","138.3","216.96","639","60.0","37"
"09/02/12 12:51:00","170.2348","132.6","216.91","614","60.03","37"
"09/02/12 12:56:00","170.2454","139.5","217.42","643","60.0","37"
"09/02/12 13:00:59","170.2561","139.8","216.83","645","60.07","38"
"09/02/12 13:06:00","170.267","141.3","216.8","653","60.03","38"
"09/02/12 13:10:59","170.2777","137.3","217.55","631","60.0","38"
"09/02/12 13:16:01","170.2888","143.3","217.6","657","60.03","39"
"09/02/12 13:21:01","170.2998","139.5","217.32","645","60.03","39"
"09/02/12 13:26:00","170.3106","138.7","217.24","640","60.03","40"
"09/02/12 13:31:00","170.3213","138.6","217.65","637","60.03","40"
"09/02/12 13:35:59","170.332","135.4","217.73","626","60.03","40"
"09/02/12 13:41:00","170.3424","129.8","217.12","598","60.0","40"
"09/02/12 13:46:01","170.352","111.6","216.73","526","60.03","40"
"09/02/12 13:51:00","170.3611","131.5","218.03","608","60.0","39"
"09/02/12 13:55:59","170.3711","131.4","217.89","605","60.0","39"
"09/02/12 14:01:00","170.3816","134.3","217.86","617","60.03","40"
"09/02/12 14:05:59","170.3919","131.1","217.75","603","60.03","40"
"09/02/12 14:11:01","170.402","126.1","217.03","586","60.03","40"
"09/02/12 14:16:00","170.4114","119.6","217.6","560","60.0","39"
"09/02/12 14:21:01","170.4209","126.2","217.49","588","60.03","39"
"09/02/12 14:26:01","170.4308","126.5","217.45","583","60.03","39"
"09/02/12 14:31:00","170.4404","121.4","217.12","565","60.0","39"
"09/02/12 14:36:01","170.4498","117.7","217.08","552","60.0","39"
"09/02/12 14:41:01","170.4586","115.6","216.73","539","60.0","39"
"09/02/12 14:46:00","170.4679","118.0","216.62","554","60.0","39"
"09/02/12 14:51:00","170.4766","99.4","215.62","474","60.0","39"
"09/02/12 14:56:01","170.4849","118.6","216.44","558","60.0","39"
"09/02/12 15:01:01","170.494","115.9","216.64","545","60.07","38"
"09/02/12 15:05:59","170.5029","112.0","217.16","526","60.03","38"
"09/02/12 15:11:01","170.5116","111.1","216.0","522","60.03","38"
"09/02/12 15:15:59","170.5201","109.8","216.89","517","60.0","38"
"09/02/12 15:21:00","170.5286","106.5","215.76","507","60.0","38"
"09/02/12 15:25:59","170.5369","105.8","216.13","503","60.03","38"
"09/02/12 15:31:00","170.545","102.8","216.2","488","60.03","38"
"09/02/12 15:35:59","170.5528","100.8","217.57","475","60.0","37"
"09/02/12 15:41:00","170.5605","97.6","216.83","463","60.03","37"
"09/02/12 15:46:00","170.568","95.8","216.44","460","60.0","37"
"09/02/12 15:50:59","170.5753","93.0","215.82","449","60.03","37"
"09/02/12 15:56:00","170.5825","88.6","216.28","427","60.03","36"
"09/02/12 16:01:01","170.5889","72.4","215.73","360","60.03","36"
"09/02/12 16:05:59","170.5948","74.5","215.25","370","60.03","36"
"09/02/12 16:11:01","170.601","79.3","215.19","390","60.03","35"
"09/02/12 16:16:00","170.607","72.6","215.47","361","60.03","35"
"09/02/12 16:21:00","170.6113","57.4","214.62","348","60.03","35"
"09/02/12 16:26:01","170.6136","25.8","214.1","130","60.0","34"
"09/02/12 16:31:01","170.615","29.4","214.22","29","60.0","33"
"09/02/12 16:35:59","170.617","37.7","214.46","98","60.0","32"
"09/02/12 16:41:00","170.6188","13.8","214.3","273","60.03","31"
"09/02/12 16:45:59","170.6207","37.0","215.03","105","60.03","31"
"09/02/12 16:51:00","170.6226","25.7","215.09","254","60.03","30"
"09/02/12 16:55:59","170.6249","31.3","215.1","144","60.03","30"
"09/02/12 17:01:00","170.6285","49.1","215.19","338","60.03","30"
"09/02/12 17:06:00","170.6326","55.4","215.49","360","60.03","30"
"09/02/12 17:11:01","170.6365","51.4","215.35","268","60.0","31"
"09/02/12 17:16:01","170.6404","43.2","215.21","368","60.03","31"
"09/02/12 17:21:01","170.6439","46.7","214.74","239","60.0","31"
"09/02/12 17:26:00","170.6469","30.9","215.05","179","60.0","31"
"09/02/12 17:31:00","170.6494","34.7","213.67","95","60.03","30"
"09/02/12 17:35:59","170.6516","36.5","213.37","114","60.03","30"
"09/02/12 17:40:59","170.6535","24.1","214.34","18","60.03","30"
"09/02/12 17:45:59","170.6551","10.7","214.38","133","60.0","29"
"09/02/12 17:51:01","170.6565","10.7","213.97","23","60.07","29"
"09/02/12 17:56:00","170.6576","14.7","214.12","4","60.03","29"
"09/02/12 18:01:00","170.6584","10.4","213.41","0","60.0","28"
"09/02/12 18:05:59","170.6591","12.7","214.75","151","60.03","28"
"09/02/12 18:11:00","170.6596","12.3","214.25","2","60.03","28"
"09/02/12 18:16:00","170.66","10.9","214.48","76","60.03","28"
"09/02/12 18:21:01","170.6603","0.0","213.67","0","60.03","27"
"09/02/12 18:26:01","170.6605","0.0","214.17","0","60.03","27"
"09/02/12 18:31:01","170.6607","0.0","213.92","0","60.0","27"
"09/02/12 18:36:01","170.6609","0.0","214.28","0","60.03","27"
"09/02/12 18:41:00","170.6611","0.0","213.21","0","60.0","26"
"09/02/12 18:46:00","170.6615","11.1","212.79","13","60.03","26"
"09/02/12 18:51:00","170.6618","0.0","213.51","0","60.0","26"
"09/02/12 18:56:00","170.662","0.0","213.36","0","60.0","26"
"09/03/12 07:48:24","170.6629","14.0","213.06","0","60.0","22"
"09/03/12 07:53:24","170.6634","13.9","214.4","9","60.0","22"
"09/03/12 07:58:23","170.6642","13.7","213.96","4","60.03","22"
"09/03/12 08:03:24","170.6649","14.0","213.87","13","60.0","23"
"09/03/12 08:08:23","170.6653","0.0","213.17","0","60.0","23"
"09/03/12 08:13:23","170.6663","11.7","214.46","29","60.0","23"
"09/03/12 08:18:23","170.6678","12.1","213.57","10","60.0","23"
"09/03/12 08:23:23","170.6692","14.5","214.73","41","60.0","24"
"09/03/12 08:28:23","170.6712","22.2","214.0","225","60.0","24"
"09/03/12 08:33:23","170.6742","37.3","214.41","112","60.0","25"
"09/03/12 08:38:23","170.6762","39.0","213.63","147","60.0","25"
"09/03/12 08:43:23","170.6791","48.9","214.85","331","60.03","26"
"09/03/12 08:48:23","170.6836","75.0","214.71","373","60.03","26"
"09/03/12 08:53:23","170.6886","43.5","213.95","327","60.0","27"
"09/03/12 08:58:23","170.6911","64.8","215.17","328","60.03","28"
"09/03/12 09:03:23","170.695","44.0","214.86","316","60.0","28"
"09/03/12 09:08:22","170.6982","35.9","213.87","254","60.03","28"
"09/03/12 09:13:24","170.7005","22.6","213.05","44","60.0","28"
"09/03/12 09:18:24","170.7025","45.5","213.48","251","59.96","28"
"09/03/12 09:23:23","170.7049","26.5","213.38","68","60.0","28"
"09/03/12 09:28:24","170.7069","31.3","213.81","79","60.03","28"
"09/03/12 09:33:24","170.7101","40.9","213.66","333","60.03","28"
"09/03/12 09:38:24","170.7124","42.4","214.37","321","60.03","29"
"09/03/12 09:43:23","170.716","40.1","213.95","390","60.03","29"
"09/03/12 09:48:23","170.719","32.3","213.94","208","60.03","29"
"09/03/12 09:53:23","170.7213","29.9","213.41","52","60.0","29"
"09/03/12 09:58:23","170.7231","16.7","213.76","217","60.03","30"
"09/03/12 10:03:24","170.725","17.6","213.69","255","60.03","30"
"09/03/12 10:08:24","170.7267","15.5","213.74","202","60.0","29"
"09/03/12 10:13:24","170.7282","18.4","212.77","188","60.0","29"
"09/03/12 10:18:24","170.7296","11.8","213.65","252","60.0","29"
"09/03/12 10:23:23","170.7313","22.2","213.94","247","60.03","29"
"09/03/12 10:28:24","170.7335","19.8","213.88","295","60.0","29"
"09/03/12 10:33:24","170.7357","26.4","213.74","24","60.03","29"
"09/03/12 10:38:24","170.7378","35.5","214.27","233","60.0","29"
"09/03/12 10:43:23","170.7402","32.9","214.56","88","60.03","30"
"09/03/12 10:48:23","170.7433","39.0","214.58","122","60.03","29"
"09/03/12 10:53:24","170.747","53.4","216.12","336","60.03","30"
"09/03/12 10:58:24","170.7509","56.3","216.17","108","60.03","30"
"09/03/12 11:03:23","170.7564","91.3","217.82","436","60.03","30"
"09/03/12 11:08:24","170.7653","110.4","217.5","519","60.07","31"
"09/03/12 11:13:23","170.7734","87.8","216.61","423","60.0","32"
"09/03/12 11:18:24","170.7793","52.6","215.63","199","60.03","32"
"09/03/12 11:23:24","170.7831","55.9","215.59","191","60.03","32"
"09/03/12 11:28:24","170.7859","32.3","215.08","153","60.0","32"
"09/03/12 11:33:24","170.7885","36.8","215.13","111","60.0","32"
"09/03/12 11:38:23","170.7921","55.0","216.0","166","60.0","31"
"09/03/12 11:43:23","170.7952","40.3","215.83","373","60.03","31"
"09/03/12 11:48:24","170.7991","54.9","215.24","363","60.0","31"
"09/03/12 11:53:24","170.8031","42.5","215.81","376","60.0","31"
"09/03/12 11:58:23","170.8068","39.9","215.08","149","60.0","31"
"09/03/12 12:03:24","170.81","38.3","215.09","136","60.03","31"
"09/03/12 12:08:23","170.8137","51.1","214.87","334","60.03","31"
"09/03/12 12:13:23","170.8168","31.5","214.64","273","60.03","31"
"09/03/12 12:18:23","170.8221","90.0","215.72","436","60.03","31"
"09/03/12 12:23:23","170.8291","62.5","215.12","314","60.03","31"
"09/03/12 12:28:23","170.8342","78.8","215.47","387","60.0","31"
"09/03/12 12:33:24","170.8384","40.8","215.38","221","60.0","31"
"09/03/12 12:38:23","170.8439","151.4","218.19","691","60.0","31"
"09/03/12 12:43:24","170.8554","134.3","217.59","619","60.03","32"
"09/03/12 12:48:24","170.8641","153.6","217.91","700","60.03","32"
"09/03/12 12:53:24","170.874","41.7","215.14","186","60.03","33"
"09/03/12 12:58:23","170.8828","39.3","214.59","181","60.03","33"
"09/03/12 13:03:24","170.8902","157.8","217.45","719","60.03","34"
"09/03/12 13:08:24","170.9011","161.0","218.13","731","60.03","35"
"09/03/12 13:13:24","170.9119","161.6","217.72","739","60.03","35"
"09/03/12 13:18:23","170.9209","143.6","216.97","662","60.03","34"
"09/03/12 13:23:23","170.9329","158.9","217.26","724","60.03","36"
"09/03/12 13:28:24","170.9445","143.2","216.58","664","60.03","36"
"09/03/12 13:33:23","170.9561","141.6","216.69","651","60.0","36"
"09/03/12 13:38:23","170.9669","122.9","216.0","577","60.0","36"
"09/03/12 13:43:23","170.9778","140.3","217.51","646","60.03","37"
"09/03/12 13:48:23","170.989","149.6","217.4","687","60.03","37"
"09/03/12 13:53:23","171.0003","140.8","216.83","652","60.0","37"
"09/03/12 13:58:24","171.0116","144.9","218.29","662","60.03","37"
"09/03/12 14:03:24","171.0227","140.8","217.44","645","60.03","37"
"09/03/12 14:08:23","171.0336","138.1","217.41","635","60.03","38"
"09/03/12 14:13:25","171.0443","135.8","217.57","631","60.03","38"
"09/03/12 14:18:24","171.0549","136.4","216.97","634","60.0","38"
"09/03/12 14:23:24","171.0651","105.1","216.74","502","60.03","38"
"09/03/12 14:28:24","171.0717","76.3","215.98","374","60.03","38"
"09/03/12 14:33:23","171.0778","72.3","215.38","361","60.0","37"
"09/03/12 14:38:24","171.0848","111.3","216.59","525","60.03","36"
"09/03/12 14:43:24","171.0905","48.3","214.23","377","60.03","36"
"09/03/12 14:48:23","171.0946","68.9","214.31","346","60.03","35"
"09/03/12 14:53:23","171.0992","46.9","214.07","322","60.07","35"
"09/03/12 14:58:23","171.1023","37.3","213.51","232","60.0","34"
"09/03/12 15:03:23","171.1057","51.7","213.74","393","60.03","34"
"09/03/12 15:08:24","171.1093","80.5","215.35","391","60.0","33"
"09/03/12 15:13:24","171.1156","46.3","213.88","350","60.03","33"
"09/03/12 15:18:23","171.1197","116.9","215.66","551","60.0","33"
"09/03/12 15:23:23","171.1285","120.5","216.26","562","60.0","34"
"09/03/12 15:28:24","171.1374","108.4","215.53","513","60.03","35"
"09/03/12 15:33:24","171.1448","108.2","214.84","514","60.03","35"
"09/03/12 15:38:24","171.1527","101.1","214.85","485","60.0","35"
"09/03/12 15:43:24","171.1607","100.7","214.49","481","60.03","35"
"09/03/12 15:48:23","171.1683","96.7","215.43","464","60.0","35"
"09/03/12 15:53:24","171.1757","93.2","215.13","450","60.03","35"
"09/03/12 15:58:23","171.1829","90.7","214.52","441","60.0","35"
"09/03/12 16:03:24","171.1899","88.7","213.97","430","60.0","35"
"09/03/12 16:08:23","171.1967","85.8","213.66","418","60.03","35"
"09/03/12 16:13:23","171.2032","82.9","213.13","409","60.03","35"
"09/03/12 16:18:23","171.2095","79.6","213.73","393","60.0","35"
"09/03/12 16:23:23","171.2156","76.6","213.52","380","60.0","35"
"09/03/12 16:28:23","171.2215","73.7","213.32","367","60.03","34"
"09/03/12 16:33:23","171.2271","70.2","213.43","353","60.0","34"
"09/03/12 16:38:24","171.2324","66.9","213.43","340","60.0","34"
"09/03/12 16:43:23","171.2374","63.1","214.06","319","60.03","34"
"09/03/12 16:48:23","171.2419","59.6","213.63","133","60.03","34"
"09/03/12 16:53:23","171.2459","58.7","213.26","92","60.03","33"
"09/03/12 16:58:23","171.2498","47.6","213.81","110","60.03","33"
"09/03/12 17:03:23","171.2537","46.8","213.65","118","59.96","33"
"09/03/12 17:08:24","171.2574","52.2","214.4","142","60.03","33"
"09/03/12 17:13:24","171.2608","35.5","213.68","92","60.03","32"
"09/03/12 17:18:24","171.2638","41.8","213.51","216","60.0","32"
"09/03/12 17:23:24","171.2666","32.8","214.01","278","60.03","32"
"09/03/12 17:28:24","171.2691","26.8","213.55","117","60.03","32"
"09/03/12 17:33:23","171.2713","27.7","213.91","37","60.03","32"
"09/03/12 17:38:23","171.2732","14.8","214.13","205","60.03","32"
"09/03/12 17:43:24","171.2748","16.4","214.02","217","60.0","31"
"09/03/12 17:48:24","171.2761","12.1","212.97","6","60.03","31"
"09/03/12 17:53:25","171.2773","12.3","212.72","3","60.03","31"
"09/03/12 17:58:23","171.2781","12.6","213.45","32","60.03","31"
"09/03/12 18:03:24","171.2788","13.6","213.52","1","60.0","30"
"09/03/12 18:08:23","171.2792","0.0","212.56","0","60.0","30"
"09/03/12 18:13:25","171.2796","0.0","212.32","0","60.03","30"
"09/03/12 18:18:23","171.2799","0.0","212.98","0","60.03","30"
"09/03/12 18:23:23","171.2802","0.0","212.59","0","60.03","30"
"09/04/12 06:53:24","171.2813","0.0","214.08","0","60.03","18"
"09/04/12 06:58:24","171.2816","11.8","214.06","4","60.03","19"
"09/04/12 07:03:23","171.2822","7.8","214.08","0","60.03","19"
"09/04/12 07:08:24","171.2829","13.8","213.42","8","60.03","19"
"09/04/12 07:13:25","171.2838","16.9","214.44","0","60.0","19"
"09/04/12 07:18:24","171.2849","22.3","214.38","199","60.03","20"
"09/04/12 07:23:23","171.2863","18.9","214.37","21","60.03","20"
"09/04/12 07:28:24","171.2879","31.1","214.78","63","60.03","20"
"09/04/12 07:33:24","171.2898","18.4","214.42","41","60.03","21"
"09/04/12 07:38:25","171.2919","33.3","214.42","152","60.03","22"
"09/04/12 07:43:25","171.2943","27.8","214.63","212","60.03","22"
"09/04/12 07:48:24","171.2969","33.5","214.33","182","60.03","23"
"09/04/12 07:53:24","171.2998","44.6","213.08","255","60.03","23"
"09/04/12 07:58:25","171.3029","49.1","213.89","231","60.0","24"
"09/04/12 08:03:25","171.3064","53.3","214.21","166","60.03","25"
"09/04/12 08:08:24","171.3101","46.9","214.16","419","60.03","25"
"09/04/12 08:13:23","171.314","63.2","215.36","115","60.03","26"
"09/04/12 08:18:23","171.3178","56.1","214.78","117","60.03","26"
"09/04/12 08:23:23","171.3217","49.7","214.42","356","60.03","27"
"09/04/12 08:28:24","171.3257","54.0","215.09","260","60.0","28"
"09/04/12 08:33:25","171.33","45.1","215.65","264","60.0","28"
"09/04/12 08:38:24","171.3344","46.8","215.72","433","60.0","29"
"09/04/12 08:48:24","171.3456","78.8","216.19","388","60.0","30"
"09/04/12 08:53:25","171.3519","81.9","215.98","401","60.03","30"
"09/04/12 08:58:23","171.3584","84.3","215.79","412","60.03","31"
"09/04/12 09:03:24","171.365","86.2","216.24","420","60.0","32"
"09/04/12 09:08:24","171.3718","88.7","216.53","430","60.03","32"
"09/04/12 09:13:24","171.3788","91.4","216.93","439","60.03","32"
"09/04/12 09:18:25","171.386","93.5","215.95","452","60.0","33"
"09/04/12 09:23:24","171.3934","96.0","215.34","460","60.0","34"
"09/04/12 09:28:25","171.4009","98.1","215.11","469","60.0","35"
"09/04/12 09:33:23","171.4086","99.7","216.15","477","60.0","36"
"09/04/12 09:38:23","171.4164","101.8","216.28","483","60.03","37"
"09/04/12 09:43:24","171.4245","103.7","215.81","492","60.0","38"
"09/04/12 09:48:25","171.4326","105.5","215.81","501","60.03","38"
"09/04/12 09:53:23","171.4409","107.6","216.46","510","60.03","39"
"09/04/12 09:58:24","171.4494","109.8","215.22","520","60.0","40"
"09/04/12 10:03:24","171.458","112.1","215.24","527","60.0","40"
"09/04/12 10:08:24","171.4668","114.8","215.22","542","60.03","41"
"09/04/12 10:13:24","171.4758","117.2","216.95","547","60.0","41"
"09/04/12 10:18:24","171.485","119.3","217.25","561","60.0","41"
"09/04/12 10:23:25","171.4944","121.4","216.98","568","60.03","41"
"09/04/12 10:28:24","171.5038","122.7","216.48","576","60.0","41"
"09/04/12 10:33:24","171.5136","124.8","217.17","582","60.0","41"
"09/04/12 10:38:25","171.5233","126.2","216.59","586","60.03","41"
"09/04/12 10:43:24","171.5332","126.8","216.26","589","60.0","41"
"09/04/12 10:48:23","171.543","128.0","216.48","595","60.03","41"
"09/04/12 10:53:23","171.5531","129.0","217.58","597","60.03","42"
"09/04/12 10:58:24","171.5632","130.5","217.16","602","60.03","42"
"09/04/12 11:03:23","171.5733","131.0","218.22","605","60.0","43"
"09/04/12 11:08:24","171.5837","132.8","217.78","614","60.03","43"
"09/04/12 11:13:24","171.5941","134.0","217.84","619","60.0","43"
"09/04/12 11:18:24","171.6046","135.3","218.99","623","60.0","43"
"09/04/12 11:23:24","171.6152","136.0","217.38","627","60.0","44"
"09/04/12 11:28:24","171.6257","137.5","216.52","638","60.03","44"
"09/04/12 11:33:25","171.6366","137.5","216.75","638","60.0","44"
"09/04/12 11:38:24","171.6473","138.2","217.31","635","60.0","44"
"09/04/12 11:43:24","171.6581","139.5","217.45","640","60.0","44"
"09/04/12 11:48:24","171.669","140.1","217.97","644","60.03","44"
"09/04/12 11:53:24","171.68","141.3","217.51","647","60.0","44"
"09/04/12 11:58:23","171.6909","140.7","217.56","647","60.03","44"
"09/04/12 12:03:24","171.7019","141.7","217.55","657","60.03","44"
"09/04/12 12:08:24","171.7129","141.9","216.88","658","60.03","44"
"09/04/12 12:13:23","171.724","142.2","217.33","653","60.0","44"
"09/04/12 12:18:25","171.7351","143.6","217.7","660","60.0","44"
"09/04/12 12:23:25","171.7463","143.3","217.32","658","60.0","44"
"09/04/12 12:28:25","171.7575","144.2","218.08","658","59.96","44"
"09/04/12 12:33:23","171.7686","144.5","218.4","663","60.03","44"
"09/04/12 12:38:24","171.7799","145.3","218.53","663","60.0","43"
"09/04/12 12:43:24","171.7913","148.1","216.53","684","60.03","43"
"09/04/12 12:48:25","171.8024","156.4","216.76","717","60.03","43"
"09/04/12 12:53:23","171.8117","104.4","215.63","499","60.0","43"
"09/04/12 12:58:24","171.8201","89.2","215.69","432","60.03","42"
"09/04/12 13:03:25","171.8301","144.2","217.22","664","60.03","42"
"09/04/12 13:08:25","171.8401","105.7","216.72","503","60.0","42"
"09/04/12 13:13:24","171.8518","153.4","217.52","696","60.0","43"
"09/04/12 13:18:24","171.8633","144.0","217.17","664","60.0","43"
"09/04/12 13:23:24","171.8744","142.7","217.19","658","60.03","43"
"09/04/12 13:28:23","171.8854","140.6","217.43","647","60.0","43"
"09/04/12 13:33:24","171.8964","139.0","217.33","639","60.0","43"
"09/04/12 13:38:24","171.9071","136.0","216.38","632","60.0","43"
"09/04/12 13:43:24","171.9177","135.7","216.83","624","60.0","43"
"09/04/12 13:48:25","171.9282","134.8","216.57","625","60.0","43"
"09/04/12 13:53:25","171.9386","132.8","217.64","614","60.03","43"
"09/04/12 13:58:24","171.9489","133.6","217.7","614","60.03","43"
"09/04/12 14:03:24","171.9592","132.2","217.53","611","60.0","43"
"09/04/12 14:08:24","171.9694","130.7","217.58","608","60.03","43"
"09/04/12 14:13:25","171.9796","129.2","217.36","599","60.03","43"
"09/04/12 14:18:25","171.9896","126.6","217.39","586","60.0","43"
"09/04/12 14:23:25","171.9996","127.1","217.01","589","60.0","43"
"09/04/12 14:28:25","172.0094","126.0","216.77","584","60.03","43"
"09/04/12 14:33:25","172.0192","124.0","216.3","581","60.0","42"
"09/04/12 14:38:23","172.0288","122.9","216.81","576","60.03","42"
"09/04/12 14:43:25","172.0384","121.0","216.63","566","60.0","42"
"09/04/12 14:48:23","172.0476","119.4","216.92","559","60.03","41"
"09/04/12 14:53:24","172.0569","117.4","216.77","549","60.0","41"
"09/04/12 14:58:25","172.066","115.6","217.27","539","60.03","40"
"09/04/12 15:03:24","172.075","113.7","216.24","536","60.03","40"
"09/04/12 15:08:25","172.0837","111.5","216.01","528","60.03","40"
"09/04/12 15:13:25","172.0924","109.8","215.99","517","60.03","39"
"09/04/12 15:18:23","172.1007","107.5","216.23","509","60.03","39"
"09/04/12 15:23:23","172.109","105.2","215.83","503","60.0","38"
"09/04/12 15:28:24","172.1172","103.2","216.38","490","60.0","38"
"09/04/12 15:33:25","172.1251","100.7","215.82","481","60.0","38"
"09/04/12 15:38:25","172.1329","98.1","215.3","470","60.03","38"
"09/04/12 15:43:24","172.1404","95.8","215.6","462","60.03","37"
"09/04/12 15:48:24","172.1477","93.5","215.67","450","60.03","37"
"09/04/12 15:53:24","172.1549","90.8","215.47","440","60.03","37"
"09/04/12 15:58:24","172.161","25.1","214.55","71","60.0","36"
"09/04/12 16:03:25","172.1677","88.4","216.4","426","60.0","36"
"09/04/12 16:08:23","172.1743","83.9","216.52","406","60.0","35"
"09/04/12 16:13:25","172.179","82.8","216.22","402","60.0","35"
"09/04/12 16:18:25","172.1852","77.7","215.11","383","60.0","35"
"09/04/12 16:23:23","172.191","73.8","215.4","364","60.03","34"
"09/04/12 16:28:23","172.1966","70.3","215.41","350","60.03","33"
"09/04/12 16:33:25","172.202","67.0","215.14","333","60.03","33"
"09/04/12 16:38:23","172.2071","63.7","215.47","324","60.03","33"
"09/04/12 16:43:25","172.2117","40.6","214.47","405","60.03","32"
"09/04/12 16:48:25","172.2156","41.9","214.61","400","60.03","32"
"09/04/12 16:53:25","172.2195","49.9","214.56","343","60.03","32"
"09/04/12 16:58:24","172.2234","43.6","215.53","381","60.03","32"
"09/04/12 17:03:24","172.2271","44.5","214.9","198","60.0","31"
"09/04/12 17:08:25","172.2306","37.0","214.47","257","60.0","31"
"09/04/12 17:13:25","172.2338","34.1","214.86","194","60.0","31"
"09/04/12 17:18:24","172.2367","30.8","214.54","194","60.0","30"
"09/04/12 17:23:23","172.2393","29.0","214.06","81","60.0","30"
"09/04/12 17:28:23","172.2417","32.1","213.27","211","60.03","29"
"09/04/12 17:33:23","172.2438","23.5","213.6","168","60.03","29"
"09/04/12 17:38:24","172.2456","10.8","212.98","26","60.0","28"
"09/04/12 17:43:25","172.2469","15.4","213.79","8","60.03","28"
"09/04/12 17:48:24","172.248","0.0","212.55","128","60.03","28"
"09/04/12 17:53:25","172.2485","0.0","212.09","0","60.03","27"